Wind_Speed
31 34 33 33 33 31 26 29 31 32 32 29 25 24 22 20 16 16 17 17 20 23 9 12 12 11 13 13 13 15 9 14 4 5 5 6 8 5 2 2 2 2 5 2 3 0 2 12 10 9 6 10 15 16
29 32 34 32 31 31 27 27 29 30 31 27 23 22 22 19 16 16 15 16 20 19 10 13 10 7 11 11 13 10 10 10 10 9 9 7 6 10 2 1 5 3 4 2 3 4 5 12 16 8 6 2 15 16
28 31 33 31 30 30 28 26 27 28 29 25 22 22 23 20 18 17 17 19 21 16 9 12 9 7 8 9 9 9 7 8 9 11 12 8 4 12 9 7 6 6 2 5 7 3 7 9 14 7 5 4 2 11
27 30 31 30 29 28 29 26 25 26 27 23 20 20 21 20 18 17 16 18 21 21 17 10 5 7 10 8 10 9 8 7 6 8 10 8 4 6 9 7 9 6 5 7 12 8 13 4 6 1 3 5 3 5
26 27 29 31 28 28 27 27 23 24 25 22 20 18 20 19 20 19 16 17 21 22 25 10 5 13 12 15 16 15 8 5 6 7 9 10 9 4 4 4 7 8 5 7 10 15 7 11 9 4 2 5 7 8
25 25 26 28 30 28 27 26 24 21 22 22 19 17 17 18 20 22 16 17 21 23 26 17 20 22 22 25 10 3 7 4 8 9 7 7 8 7 3 1 6 4 4 4 4 12 18 10 10 4 3 2 4 4
25 25 25 28 29 30 28 25 24 22 20 20 18 16 15 15 19 19 18 17 18 20 21 16 19 28 25 15 16 10 7 2 2 5 4 4 3 4 7 12 11 8 9 11 6 8 8 18 8 7 3 5 2 1
26 26 26 27 30 29 30 26 24 23 20 19 18 15 15 13 12 15 15 14 17 19 20 15 25 25 26 20 11 14 8 3 2 1 2 3 3 3 5 8 6 12 13 12 11 11 10 10 15 13 9 7 8 6
25 28 29 29 30 30 30 28 22 22 20 19 18 15 14 13 14 14 14 10 10 13 21 20 30 23 25 20 12 7 6 4 2 0 4 6 3 3 10 11 12 19 19 18 18 16 10 6 9 13 16 7 11 11
29 31 30 28 28 29 28 29 23 21 21 18 18 15 12 13 14 12 10 9 8 10 18 28 34 31 21 16 11 5 4 6 4 3 9 0 3 8 11 11 18 14 10 13 14 15 17 14 13 14 18 14 12 15
28 28 28 26 29 27 26 28 23 22 21 19 17 15 14 13 12 8 4 5 5 7 17 27 31 26 18 15 11 9 5 5 5 10 7 7 13 26 26 19 15 22 18 15 15 18 20 20 17 16 19 16 14 15
29 25 24 26 29 25 24 25 25 22 23 22 20 18 14 8 5 3 3 3 4 5 20 26 29 21 17 14 9 7 5 5 5 9 6 7 23 24 26 26 20 18 21 21 19 17 21 26 24 23 23 18 18 17
23 15 17 24 26 26 25 24 24 23 24 23 21 10 5 5 5 4 2 2 5 12 16 20 23 19 12 12 5 6 6 5 4 5 5 20 20 21 25 27 26 20 20 23 21 20 19 22 29 28 30 28 24 25
22 15 16 23 25 27 22 22 24 23 22 22 14 8 6 6 6 7 7 4 6 11 14 18 18 12 12 9 5 4 4 3 2 5 9 19 19 23 25 26 30 28 30 30 32 27 19 18 24 28 32 32 30 31
23 17 19 24 25 25 25 22 22 21 21 20 11 8 10 11 11 11 10 9 9 11 14 17 14 9 8 3 4 3 3 2 2 8 15 20 20 21 22 26 28 29 30 33 31 36 29 26 22 24 31 34 34 36
26 20 21 27 27 21 23 19 20 20 21 21 18 16 15 16 14 14 12 11 8 11 13 15 7 4 3 4 3 2 6 2 10 13 20 21 25 25 25 26 28 29 31 32 35 34 38 30 27 26 18 29 33 37
28 20 22 26 30 23 21 21 21 22 20 12 16 18 20 20 19 15 15 13 12 11 11 10 5 4 7 4 3 3 6 7 13 20 23 22 24 21 25 28 27 30 32 31 31 32 30 33 28 27 20 20 29 33
28 23 23 28 30 27 22 21 19 20 26 25 18 13 18 20 20 19 16 14 15 13 12 14 13 14 10 8 10 10 15 14 14 22 21 15 15 22 20 24 26 26 28 29 30 31 31 29 29 28 25 18 22 30
29 23 24 28 28 26 28 26 19 20 25 22 14 13 16 17 16 15 18 17 18 18 19 19 11 11 10 15 16 16 18 18 19 22 19 17 18 19 21 21 24 25 24 28 31 33 32 29 31 33 32 26 22 25
28 25 23 25 28 26 24 14 21 22 21 22 15 16 17 19 19 21 21 21 24 24 25 26 24 21 19 15 18 20 20 19 22 24 22 18 17 16 17 20 23 22 23 27 30 32 32 32 28 32 37 34 30 22
28 24 21 24 27 24 24 24 23 19 19 27 26 19 21 20 18 18 20 18 22 29 30 28 26 19 16 17 18 19 19 18 20 22 20 19 17 13 16 18 22 22 25 27 30 33 33 34 31 30 38 38 37 34
26 22 22 23 26 28 33 33 32 31 28 28 27 22 24 22 20 18 18 25 29 30 31 30 27 24 20 18 17 19 18 18 19 18 17 17 15 14 17 20 21 20 22 26 29 31 30 31 33 25 29 39 41 37
26 22 20 23 24 23 27 26 25 25 24 27 23 23 24 23 23 24 24 23 26 23 19 21 24 24 23 21 20 19 19 18 15 16 16 15 15 16 17 19 21 21 20 21 23 27 28 28 29 29 25 28 34 39
22 21 23 17 19 19 22 22 24 25 25 23 23 26 25 24 24 28 32 26 22 22 23 22 23 23 24 25 20 17 17 16 15 14 12 11 13 17 18 17 16 19 22 22 21 23 25 24 24 26 22 26 25 28
21 19 16 20 22 20 27 28 28 29 30 27 25 26 27 25 24 34 35 22 16 16 17 20 21 21 17 15 16 14 13 14 13 10 11 14 17 18 17 18 18 18 18 17 17 18 21 22 20 21 22 19 20 24
18 15 17 17 20 24 26 26 26 24 20 18 18 20 19 23 22 17 20 13 9 8 9 12 13 12 12 14 13 11 7 4 8 11 14 15 16 17 18 17 17 16 16 16 15 17 20 19 17 16 17 19 19 17
23 20 18 24 24 19 19 22 23 21 19 24 25 24 18 9 11 5 2 3 5 7 9 7 5 5 7 10 10 8 5 7 8 11 13 11 13 14 16 16 14 14 17 19 17 16 19 16 15 14 13 15 16 17
32 31 31 28 31 27 27 28 29 29 31 29 27 24 11 12 15 14 14 13 9 6 7 7 6 5 5 4 6 9 9 10 10 13 13 13 16 17 15 18 16 13 15 17 14 13 14 12 11 11 11 10 12 14
43 40 38 41 39 39 40 37 39 38 36 34 30 27 28 27 27 28 23 19 16 16 10 10 8 8 11 13 13 11 12 12 11 12 12 14 17 19 20 20 18 12 10 14 14 16 16 13 10 10 10 10 9 9
40 36 40 37 39 40 38 37 35 32 31 27 25 25 29 28 24 24 20 21 24 24 17 20 19 16 16 19 15 16 15 14 14 15 16 17 19 21 21 19 17 15 13 13 14 14 18 17 12 10 10 10 9 8
31 31 33 31 31 23 17 23 27 26 26 26 26 26 22 20 17 17 17 14 14 26 18 11 12 11 13 16 22 20 18 18 19 19 20 24 25 22 24 23 18 15 15 16 16 11 8 9 9 10 9 10 10 10
35 34 31 32 29 22 24 24 24 26 24 23 19 16 15 17 14 11 9 8 9 12 11 12 18 19 16 19 23 28 24 24 23 22 25 26 28 26 24 24 22 19 18 18 18 19 17 15 14 13 13 13 13 13
30 29 28 28 28 27 25 26 25 16 15 16 14 13 12 11 12 15 14 13 12 12 14 15 18 19 17 16 19 21 26 23 21 23 21 19 17 19 19 19 20 20 21 19 18 19 19 19 18 18 16 14 13 13
Wind_Direction
351 354 351 352 354 353 351 353 357 360 358 355 357 355 356 358 356 353 355 350 341 340 349 340 342 348 348 350 350 7 18 5 337 340 330 326 299 186 243 106 70 320 319 152 181 333 118 23 91 160 96 243 231 208
345 349 351 349 352 353 351 350 356 358 357 355 358 358 358 360 357 355 353 352 349 346 352 352 354 5 6 343 323 349 2 357 2 5 344 319 324 27 297 241 160 93 91 62 60 105 65 72 71 75 39 4 232 220
339 344 349 347 348 351 351 348 352 356 357 354 356 357 358 356 357 358 359 359 358 356 359 353 350 343 345 354 350 336 331 343 341 341 338 334 330 7 14 33 31 35 110 333 16 63 158 110 50 45 39 43 243 234
334 339 345 346 344 347 351 349 345 351 355 353 350 351 352 353 356 357 359 360 358 356 353 356 360 319 310 318 320 327 335 302 314 314 325 326 339 358 22 29 24 11 349 354 354 64 138 129 17 37 164 68 118 225
331 334 340 345 342 342 346 350 342 344 349 353 347 343 347 352 354 356 359 0 359 358 349 1 321 304 291 292 307 310 293 292 277 304 323 336 310 352 30 19 18 360 358 27 358 334 8 43 26 4 198 106 82 191
326 329 333 338 343 337 339 346 344 337 342 347 344 339 344 346 349 346 345 358 0 354 353 354 332 1 353 12 9 359 278 286 255 284 303 339 351 353 334 324 289 278 8 347 330 331 312 330 324 359 228 108 96 132
318 324 325 330 335 337 331 337 342 334 335 338 338 338 333 337 341 344 351 359 359 355 344 352 355 5 14 25 30 24 0 285 235 262 287 330 319 273 300 287 277 303 328 336 291 305 305 334 251 325 295 218 212 166
314 322 319 321 327 330 332 327 336 335 327 330 332 329 334 322 330 337 343 358 5 18 12 356 357 6 11 12 14 20 33 74 100 184 335 335 300 300 277 322 282 286 277 299 306 289 282 313 289 299 297 248 226 233
312 318 320 313 318 325 327 327 327 334 328 326 329 325 327 320 316 313 328 337 357 3 14 2 0 357 5 11 15 14 60 47 50 271 316 322 347 339 321 313 294 278 273 272 271 278 263 241 306 285 284 291 250 227
298 303 313 313 313 322 323 327 322 330 334 328 327 326 319 318 319 313 324 336 352 354 359 4 357 354 357 12 11 35 38 50 9 334 345 312 299 346 22 10 0 347 301 282 285 288 280 255 243 267 264 268 259 237
297 300 306 303 309 321 322 325 324 323 331 330 325 325 310 306 310 305 305 329 334 348 353 353 352 351 359 4 21 27 24 17 27 7 31 45 14 31 29 12 15 16 360 317 288 276 277 268 245 232 242 241 251 250
293 296 298 304 299 312 317 320 325 319 325 327 320 313 305 282 270 253 289 314 340 344 353 350 350 351 359 356 15 14 30 37 38 12 27 40 21 22 22 20 20 12 1 351 335 290 270 268 265 237 228 244 242 249
297 292 298 301 297 302 311 310 320 318 315 320 323 305 281 255 248 246 279 316 338 336 345 345 346 344 347 350 350 22 22 18 28 30 30 17 11 14 11 14 20 13 9 3 350 339 297 268 263 255 232 228 236 241
292 274 295 297 298 305 305 304 310 315 308 317 314 277 266 232 238 264 291 304 327 326 336 343 340 333 337 338 346 7 10 39 46 3 352 2 356 352 4 8 13 12 10 10 7 360 340 308 266 260 249 239 227 228
295 287 291 293 293 301 303 297 304 308 302 302 290 266 250 248 272 282 278 286 305 321 329 340 336 328 334 337 349 346 337 345 7 344 344 347 348 347 346 3 3 5 4 4 5 5 353 342 326 288 261 246 240 224
291 287 280 288 292 300 294 291 294 301 297 286 269 263 281 276 286 279 275 273 285 311 327 340 328 303 292 317 307 308 325 314 325 340 343 342 343 340 338 357 2 0 358 360 2 5 4 349 339 334 292 247 244 241
292 285 273 283 288 299 292 288 293 291 283 268 282 284 289 285 284 273 268 265 268 289 306 321 310 286 304 269 270 288 306 347 340 343 339 333 339 340 344 351 354 360 360 359 353 3 6 5 354 344 319 261 246 244
293 291 279 282 285 296 296 284 284 278 280 294 292 293 274 281 278 272 266 267 262 261 273 286 289 278 271 261 282 305 310 319 324 333 334 343 346 341 340 344 347 353 355 359 357 356 356 0 2 351 336 321 262 248
289 287 284 278 286 293 299 297 288 273 282 290 289 294 274 275 281 279 273 265 250 258 267 269 266 259 271 290 289 302 310 306 325 331 327 326 326 328 328 331 340 344 351 353 354 357 357 1 358 357 355 335 316 267
282 285 274 273 284 290 293 277 278 277 289 295 282 296 283 279 279 276 275 263 247 251 253 254 265 280 290 280 278 292 300 303 315 323 329 322 314 318 328 337 338 337 343 343 349 352 358 2 3 360 358 346 335 304
281 279 267 265 275 283 277 274 267 282 285 293 299 291 290 298 295 280 270 268 255 245 251 260 268 280 277 279 278 291 295 300 311 310 319 324 305 332 349 349 339 331 335 337 341 348 355 2 2 11 7 360 354 340
280 276 267 263 270 278 273 269 278 281 281 283 287 286 292 304 302 299 282 263 259 261 256 259 267 277 271 272 277 284 294 301 308 299 307 316 316 323 328 329 334 338 340 334 336 342 355 360 359 354 358 0 4 352
275 269 262 264 272 270 271 273 271 276 268 280 293 293 291 303 302 308 299 286 276 267 265 263 263 265 264 260 267 278 287 296 299 294 300 308 312 315 322 327 327 330 333 335 338 342 353 358 0 1 358 356 6 15
266 262 264 264 251 248 259 253 267 269 276 274 287 293 298 293 300 307 304 297 290 279 260 258 263 265 265 255 259 268 283 292 295 284 296 306 310 309 310 314 319 324 329 330 333 337 344 358 3 6 7 359 358 360
245 249 238 238 244 246 250 260 268 266 270 276 282 286 294 297 294 304 309 323 307 280 255 258 258 261 256 240 253 270 281 296 296 276 289 297 298 303 309 311 314 316 322 328 324 327 336 349 2 2 2 353 7 7
236 232 227 234 236 241 253 258 263 268 271 269 271 287 289 298 296 290 316 323 300 264 251 250 256 260 251 247 245 259 275 269 283 285 290 293 304 319 322 315 315 312 315 325 326 332 331 336 350 4 5 8 13 10
233 228 230 234 242 249 246 252 257 255 262 275 283 283 286 263 282 297 348 295 289 282 268 264 250 225 223 234 256 254 255 307 288 315 317 311 319 338 338 324 324 317 305 302 307 312 326 323 330 347 7 12 17 20
243 240 242 249 253 255 256 256 263 264 273 282 281 268 252 264 268 253 258 247 242 249 257 231 211 205 207 239 258 249 262 279 298 315 315 316 320 320 333 340 327 301 304 298 299 311 317 317 322 327 338 360 10 21
244 254 259 258 259 261 260 259 262 270 278 280 273 270 275 281 274 271 269 259 237 225 216 242 240 259 247 255 247 253 263 269 280 303 309 309 316 319 318 323 319 309 306 307 311 306 302 301 315 326 329 331 339 356
254 257 261 267 266 265 269 268 274 277 278 274 269 268 272 278 279 274 275 260 245 224 225 232 233 246 253 249 248 259 259 267 280 297 308 309 306 307 314 310 317 315 312 295 295 301 289 282 289 300 308 308 311 320
263 264 266 267 271 278 276 273 271 271 269 264 259 264 273 275 267 275 280 276 241 227 223 236 243 271 284 285 237 249 255 259 269 285 299 306 306 304 304 299 298 300 295 295 296 299 296 285 289 292 295 295 294 296
264 265 266 267 277 273 274 271 275 275 266 247 246 254 261 260 252 258 270 267 247 230 233 251 272 275 288 289 265 253 249 253 253 268 286 294 295 295 290 286 290 294 290 288 287 286 288 290 292 290 283 282 283 282
267 260 261 262 259 257 262 269 265 250 249 243 244 246 243 250 256 256 256 254 253 259 266 264 265 274 270 277 279 272 262 262 265 273 284 292 283 277 281 282 285 287 286 284 283 284 286 289 289 289 288 285 282 280
Height
3110 3103 3097 3090 3084 3077 3070 3065 3060 3054 3047 3040 3035 3030 3025 3020 3016 3012 3009 3005 3002 2997 2993 2990 2988 2985 2982 2980 2977 2975 2974 2971 2969 2967 2965 2963 2961 2957 2957 2958 2961 2965 2966 2967 2969 2969 2973 2970 2972 2975 2981 2977 2977 2979
3108 3102 3095 3089 3083 3076 3070 3064 3059 3053 3047 3041 3036 3031 3026 3021 3016 3012 3008 3005 3000 2996 2994 2991 2987 2985 2983 2980 2977 2976 2975 2973 2971 2971 2970 2964 2963 2962 2961 2962 2963 2966 2967 2967 2969 2971 2971 2972 2973 2976 2976 2975 2974 2976
3105 3099 3093 3088 3082 3076 3069 3063 3058 3052 3046 3041 3036 3032 3027 3022 3017 3013 3010 3006 3001 2996 2994 2990 2987 2985 2982 2980 2978 2976 2975 2974 2973 2971 2969 2968 2965 2964 2962 2964 2964 2963 2966 2968 2969 2968 2969 2972 2972 2974 2975 2974 2973 2974
3102 3097 3091 3085 3080 3074 3068 3062 3057 3051 3045 3041 3036 3031 3027 3023 3018 3014 3010 3006 3002 2997 2993 2991 2987 2984 2981 2977 2976 2974 2973 2973 2972 2970 2969 2968 2968 2967 2966 2966 2964 2967 2969 2968 2967 2966 2968 2971 2973 2972 2974 2973 2973 2973
3099 3094 3089 3084 3078 3072 3067 3060 3054 3050 3045 3039 3035 3030 3027 3023 3019 3015 3010 3006 3002 3001 2993 2989 2986 2981 2977 2974 2972 2970 2970 2969 2970 2970 2969 2968 2967 2966 2966 2966 2968 2973 2971 2966 2965 2965 2968 2971 2972 2971 2972 2971 2971 2971
3095 3090 3086 3081 3076 3070 3064 3058 3052 3047 3043 3038 3033 3029 3025 3022 3018 3015 3011 3008 3003 2998 2993 2988 2984 2979 2977 2972 2969 2969 2968 2967 2967 2968 2969 2969 2967 2968 2968 2967 2968 2966 2962 2960 2963 2965 2966 2968 2970 2969 2969 2970 2970 2970
3090 3086 3082 3078 3073 3067 3061 3056 3050 3044 3040 3037 3032 3028 3024 3021 3018 3015 3012 3007 3003 2999 2994 2988 2985 2980 2977 2972 2970 2968 2967 2966 2967 2968 2968 2968 2968 2967 2966 2965 2967 2961 2957 2960 2961 2963 2964 2966 2968 2968 2966 2968 2968 2969
3086 3081 3078 3073 3069 3064 3058 3053 3048 3042 3037 3033 3030 3026 3022 3020 3018 3015 3011 3008 3005 3001 2995 2992 2988 2981 2977 2973 2970 2969 2967 2968 2968 2968 2968 2968 2967 2966 2965 2964 2960 2960 2962 2962 2959 2959 2960 2962 2966 2965 2964 2964 2964 2965
3081 3076 3072 3068 3064 3059 3054 3048 3044 3040 3034 3030 3026 3023 3020 3018 3016 3013 3010 3007 3005 3004 2998 2994 2988 2982 2979 2975 2971 2970 2969 2969 2970 2969 2968 2969 2966 2966 2965 2965 2960 2960 2959 2956 2956 2956 2956 2957 2959 2962 2961 2960 2961 2961
3074 3071 3067 3063 3059 3054 3049 3044 3040 3036 3031 3027 3023 3020 3017 3015 3013 3011 3008 3006 3003 3002 2998 2994 2989 2984 2981 2976 2974 2971 2970 2970 2970 2971 2969 2968 2969 2968 2965 2962 2960 2957 2952 2952 2951 2952 2951 2951 2952 2954 2958 2957 2958 2958
3065 3064 3061 3057 3053 3050 3046 3040 3036 3033 3028 3024 3020 3018 3015 3012 3010 3008 3007 3006 3004 3002 2999 2995 2990 2984 2981 2977 2975 2974 2973 2972 2972 2973 2970 2971 2969 2967 2963 2962 2958 2954 2952 2951 2950 2949 2948 2947 2948 2949 2952 2953 2953 2954
3057 3056 3055 3051 3048 3045 3041 3037 3032 3030 3025 3021 3017 3014 3011 3009 3008 3007 3004 3004 3003 3001 2998 2994 2990 2986 2982 2978 2976 2976 2975 2974 2975 2973 2972 2973 2972 2969 2967 2965 2962 2957 2955 2951 2947 2942 2942 2941 2940 2939 2941 2946 2947 2948
3049 3047 3048 3045 3041 3039 3037 3033 3030 3026 3023 3018 3014 3010 3009 3008 3006 3003 3002 3001 3001 2999 2997 2993 2990 2986 2983 2981 2979 2978 2977 2976 2976 2976 2977 2976 2973 2970 2968 2964 2961 2958 2954 2948 2942 2936 2931 2930 2931 2931 2932 2934 2938 2941
3042 3040 3040 3038 3035 3033 3032 3028 3025 3022 3019 3016 3013 3009 3007 3003 3001 3000 2999 2998 2997 2995 2994 2991 2988 2985 2982 2981 2979 2978 2978 2978 2978 2977 2977 2974 2970 2968 2965 2961 2955 2951 2946 2939 2937 2934 2932 2927 2924 2921 2922 2922 2924 2930
3034 3035 3034 3030 3028 3028 3025 3023 3020 3018 3015 3013 3011 3005 3000 2999 2998 2997 2997 2996 2995 2992 2990 2988 2985 2984 2981 2980 2980 2979 2978 2976 2976 2976 2974 2971 2969 2966 2963 2958 2954 2949 2944 2942 2937 2931 2921 2918 2919 2914 2914 2913 2914 2919
3027 3028 3027 3023 3021 3022 3019 3018 3015 3013 3010 3008 3004 2999 2998 2996 2996 2994 2993 2993 2993 2991 2988 2986 2983 2982 2980 2979 2979 2978 2978 2976 2976 2974 2971 2968 2967 2964 2961 2958 2953 2950 2947 2942 2932 2925 2921 2918 2915 2910 2906 2905 2908 2912
3020 3019 3017 3015 3012 3013 3012 3010 3009 3007 3004 3000 2996 2994 2993 2992 2992 2991 2990 2990 2989 2989 2987 2986 2983 2981 2979 2976 2976 2975 2975 2974 2972 2971 2969 2966 2963 2961 2959 2956 2951 2946 2940 2936 2934 2929 2924 2918 2912 2908 2903 2903 2904 2905
3013 3013 3010 3007 3004 3004 3005 3003 3002 2998 2993 2992 2990 2990 2987 2986 2986 2986 2986 2987 2986 2984 2984 2983 2982 2979 2977 2974 2972 2972 2970 2970 2969 2966 2964 2963 2961 2959 2956 2953 2949 2945 2941 2936 2931 2926 2921 2917 2911 2905 2899 2897 2898 2898
3005 3005 3003 2999 2998 2998 2996 2994 2993 2990 2986 2986 2985 2983 2981 2981 2980 2980 2980 2980 2980 2980 2978 2977 2976 2973 2973 2972 2970 2969 2967 2965 2964 2963 2960 2957 2956 2955 2953 2951 2947 2943 2939 2934 2930 2925 2919 2913 2909 2902 2893 2889 2891 2890
2995 2995 2994 2993 2991 2992 2990 2989 2985 2983 2981 2979 2979 2978 2975 2975 2975 2974 2973 2972 2972 2971 2970 2969 2969 2969 2968 2968 2967 2966 2964 2962 2960 2958 2956 2954 2952 2950 2948 2946 2943 2939 2936 2933 2930 2925 2919 2912 2905 2899 2895 2892 2888 2881
2986 2986 2986 2986 2985 2986 2984 2980 2978 2977 2975 2972 2972 2971 2969 2969 2967 2965 2964 2964 2963 2961 2961 2962 2963 2963 2963 2962 2962 2961 2960 2958 2956 2954 2951 2950 2948 2946 2944 2941 2939 2936 2933 2928 2924 2919 2914 2908 2904 2899 2893 2886 2875 2867
2977 2978 2977 2977 2977 2975 2972 2972 2972 2970 2969 2967 2965 2964 2961 2960 2959 2958 2956 2954 2952 2952 2954 2955 2956 2957 2957 2956 2956 2955 2955 2953 2951 2949 2947 2946 2945 2943 2940 2938 2935 2932 2928 2924 2920 2916 2913 2908 2902 2895 2889 2882 2873 2862
2969 2969 2968 2969 2970 2966 2963 2962 2962 2962 2962 2960 2959 2957 2956 2955 2952 2951 2947 2945 2944 2945 2946 2947 2948 2948 2948 2949 2949 2950 2949 2948 2947 2945 2943 2942 2941 2939 2937 2934 2931 2929 2927 2923 2918 2913 2909 2905 2901 2893 2887 2882 2877 2865
2960 2960 2960 2960 2958 2956 2954 2954 2954 2954 2953 2953 2953 2950 2949 2948 2946 2942 2937 2937 2937 2936 2937 2938 2938 2939 2939 2941 2943 2944 2944 2943 2942 2940 2939 2938 2937 2936 2933 2930 2929 2926 2923 2920 2917 2913 2909 2906 2902 2897 2890 2885 2880 2875
2954 2953 2952 2948 2947 2946 2946 2947 2947 2947 2945 2946 2946 2944 2943 2941 2938 2934 2930 2929 2927 2927 2929 2930 2930 2931 2932 2934 2936 2938 2938 2938 2937 2936 2935 2934 2933 2931 2930 2927 2925 2924 2921 2918 2916 2913 2909 2906 2903 2900 2895 2890 2886 2882
2940 2939 2939 2936 2936 2939 2938 2939 2939 2939 2939 2939 2939 2938 2936 2935 2932 2929 2926 2925 2923 2923 2923 2924 2925 2926 2927 2928 2930 2932 2933 2933 2933 2933 2932 2930 2929 2927 2925 2924 2922 2920 2918 2916 2913 2911 2909 2905 2904 2901 2898 2894 2890 2886
2926 2927 2926 2929 2930 2932 2931 2932 2933 2933 2932 2932 2931 2931 2931 2928 2925 2924 2923 2922 2920 2920 2920 2921 2921 2922 2923 2925 2927 2928 2929 2929 2928 2928 2926 2926 2925 2923 2921 2918 2916 2915 2914 2912 2910 2909 2908 2905 2902 2902 2899 2896 2893 2889
2916 2917 2920 2925 2924 2925 2925 2926 2926 2925 2924 2924 2923 2922 2922 2920 2920 2919 2919 2919 2918 2917 2918 2918 2919 2920 2921 2923 2924 2925 2925 2925 2924 2924 2922 2922 2920 2919 2917 2914 2912 2910 2909 2907 2906 2905 2904 2903 2901 2900 2899 2898 2895 2893
2904 2909 2913 2912 2915 2915 2913 2915 2915 2916 2917 2915 2914 2914 2913 2912 2912 2911 2912 2912 2913 2913 2913 2916 2917 2917 2918 2920 2920 2921 2920 2921 2920 2920 2919 2918 2916 2915 2913 2911 2908 2906 2904 2903 2903 2903 2901 2901 2900 2898 2898 2897 2896 2895
2897 2900 2900 2901 2901 2900 2902 2905 2905 2907 2906 2906 2906 2904 2903 2903 2904 2903 2903 2903 2905 2906 2907 2908 2910 2912 2913 2914 2915 2915 2915 2915 2915 2915 2914 2913 2912 2911 2909 2908 2905 2903 2901 2900 2899 2899 2898 2897 2897 2896 2896 2895 2895 2894
2890 2891 2890 2890 2890 2893 2894 2895 2895 2896 2896 2896 2897 2896 2897 2897 2898 2897 2896 2895 2895 2898 2900 2902 2903 2905 2906 2906 2907 2907 2907 2908 2909 2909 2908 2907 2907 2905 2904 2902 2901 2900 2898 2897 2896 2895 2894 2893 2893 2893 2893 2892 2892 2892
2879 2880 2882 2881 2883 2886 2885 2885 2886 2886 2887 2887 2889 2890 2891 2891 2892 2892 2892 2893 2893 2894 2895 2897 2899 2900 2900 2900 2901 2900 2900 2901 2901 2901 2900 2900 2899 2898 2896 2896 2895 2894 2893 2892 2891 2890 2889 2888 2888 2888 2888 2889 2889 2888
2868 2870 2872 2872 2873 2874 2878 2879 2878 2878 2879 2880 2882 2884 2885 2886 2886 2887 2887 2888 2889 2890 2891 2892 2893 2893 2893 2893 2892 2892 2893 2893 2894 2894 2893 2892 2891 2891 2890 2889 2889 2888 2888 2887 2886 2885 2884 2884 2884 2884 2884 2884 2884 2885